sat.trackr.live / text

‹ back to catalog

ONEWEB-0127

NORAD 47273 · 2020-100R

PAYLOAD ACTIVE UNKNOWN

§ Identity

Operator
Country
UK
Launch date
2020-12-18
Launch site
VOSTO
Launch vehicle
Mass (kg)
RCS (m²)

Purposes: comms

External: N2YO · Heavens-Above · Gunter

§ Orbital elements

Epoch: 2026-09-19T22:10:22.844928Z

Period
109.72 min
Inclination
87.8980°
Eccentricity
0.0001760
Mean motion
13.12443999 rev/d
Perigee alt
1,212.4 km
Apogee alt
1,215.1 km
Semi-major
7,591.9 km
B*
-1.0569e-3
RAAN
331.8551°
Arg perigee
98.4246°
Mean anomaly
261.7082°
Rev number
27,715

§ Raw data

ONEWEB-01271 47273U 20100R   26262.92387552 -.00000368  00000+0 -10569-2 0  99962 47273  87.8980 331.8551 0001760  98.4246 261.7082 13.12443999277151

JSON: /api/v1/satellites/47273 · /tle

For live sub-satellite position, see the globe view (requires WebGL).

§ Visibility from observer

Set your observer location to see the next 7 days of passes ≥ 10°. The values pass through the URL so the page stays shareable.

No JS? Fill the form by hand. The geolocation button needs JavaScript.